Location: Rometta
(44.2000°N, 10.0500°E)
Time: 22:29:47
(UTC+00:00)

Okean 1-7 Rocket - Pass Details

Date: 20 January 2021
Orbit: 615 x 650 km, 82.5° (Epoch: 04 March)

Event Time Altitude Azimuth Distance (km) Brightness Sun altitude
Rises 17:33:18 0° 182° (S) 2,936 7.2 -14.2°
Reaches altitude 10° 17:35:32 10° 180° (S) 2,036 6.4 -14.6°
Maximum altitude 17:40:02 73° 97° (E) 680 3.5 -15.3°
Drops below altitude 10° 17:44:37 10° 12° (NNE) 2,064 6.0 -16.1°
Sets 17:46:53 0° 11° (N) 2,980 6.8 -16.5°
